Wind_Speed
12 10 9 8 7 5 4 4 4 3 2 3 2 2 3 5 4 1 2 2 3 6 10 8 6 6 4 7 9 11 12 14 15 16 16 17 18 19 20 21 21 21 20 19 18 19 20 21 22 22 23 23 22 22 22 23 24 24 23 21 20 19 19 19 19 20 20 20 20 19 19 17 16 16
14 11 9 9 8 6 5 4 3 3 4 4 5 4 4 6 6 6 4 2 4 6 9 8 6 7 8 9 10 12 14 16 17 17 18 19 20 20 21 22 22 22 21 20 19 20 21 23 24 25 26 26 25 24 23 23 23 24 25 24 24 23 23 23 23 23 23 22 22 21 20 19 18 17
15 13 12 11 10 8 7 6 4 3 4 6 7 6 6 7 8 9 6 2 4 6 7 8 9 9 11 11 12 15 16 16 17 18 19 21 22 22 22 23 23 24 23 22 22 22 23 24 25 25 24 24 23 23 22 22 22 23 24 25 25 25 25 25 26 26 25 23 22 22 22 21 20 19
16 16 15 13 13 11 10 9 8 7 6 7 8 7 7 7 8 9 8 5 7 10 10 11 12 11 12 13 14 15 16 15 16 18 21 23 23 22 23 23 24 25 25 25 24 25 25 24 25 24 24 23 23 23 23 22 23 23 25 26 26 26 26 26 27 27 26 24 23 22 21 21 21 21
18 17 16 15 14 14 14 12 11 10 10 9 9 7 8 9 10 10 11 10 10 11 12 12 13 13 13 15 15 14 14 15 16 18 20 21 22 24 24 24 24 25 25 25 26 26 26 26 25 25 25 25 25 25 25 25 25 26 26 27 28 29 29 29 28 27 26 25 24 23 22 22 22 22
20 18 17 16 16 16 16 14 11 11 12 11 10 8 9 12 12 12 13 12 10 10 12 14 16 16 16 17 18 16 16 17 18 18 18 19 21 22 24 24 25 25 25 25 25 25 26 25 25 26 27 27 26 26 26 27 27 27 28 28 28 28 29 29 29 29 28 26 26 26 25 25 25 25
22 21 19 17 15 15 15 14 12 12 14 13 12 11 10 11 12 12 11 11 11 12 14 16 17 18 18 20 20 19 18 18 18 19 19 19 20 21 22 23 24 25 25 25 24 24 24 25 26 27 28 28 28 28 28 28 28 28 29 28 28 28 27 28 29 30 30 29 28 28 28 28 29 29
23 23 22 20 17 15 15 15 15 15 16 15 14 13 13 12 13 12 11 12 12 13 15 17 18 19 20 21 22 22 21 20 19 18 19 19 21 22 21 22 24 25 25 24 24 24 24 25 26 27 27 28 28 27 27 27 28 29 30 30 30 30 29 29 29 30 31 31 31 31 31 31 32 32
24 23 23 22 19 18 18 18 17 17 17 17 16 15 16 16 15 14 13 12 12 14 16 19 20 20 20 23 25 24 23 21 20 20 19 20 22 23 22 22 23 24 23 23 23 23 23 24 25 26 27 27 27 28 28 28 29 30 31 32 32 32 32 32 31 31 31 31 32 33 34 34 35 34
25 24 23 22 21 21 21 20 18 17 17 17 16 16 16 16 16 15 14 13 14 15 17 19 20 22 22 23 25 26 23 20 20 22 22 22 22 22 22 23 22 22 22 22 21 22 23 24 26 27 28 28 28 28 29 30 30 30 31 31 32 33 34 34 34 34 34 34 34 35 36 36 36 36
25 25 24 23 23 23 22 21 19 18 18 17 16 16 16 16 16 16 16 15 16 17 17 18 20 22 23 23 25 26 22 19 20 22 23 23 22 22 23 23 22 21 21 21 21 22 24 26 27 28 29 29 29 29 29 30 30 30 30 31 32 33 34 34 35 35 35 35 35 35 36 36 35 35
25 25 25 25 24 23 23 21 20 19 19 19 18 18 18 18 18 19 19 18 18 18 17 18 19 20 21 23 24 24 21 20 21 20 19 20 21 21 21 20 19 19 20 21 23 24 25 26 27 27 28 28 27 26 26 27 28 29 31 32 32 32 33 32 32 32 32 33 33 33 33 32 32 32
24 24 25 25 24 23 22 21 20 20 20 21 20 20 19 20 20 21 21 20 20 18 16 17 19 19 20 22 22 22 22 20 19 17 16 16 17 18 19 21 21 21 21 23 23 23 22 24 25 25 26 25 24 23 25 27 30 32 32 32 32 32 32 31 30 30 30 30 31 31 31 32 32 34
25 25 25 25 24 24 23 22 22 21 22 22 21 20 21 22 22 22 21 22 21 17 16 18 19 17 18 21 22 21 20 18 17 16 16 15 16 18 19 21 24 23 22 22 23 23 24 25 27 26 26 26 25 26 28 30 30 31 30 30 30 29 29 29 30 30 30 30 31 31 32 32 33 35
27 26 25 24 24 24 23 23 21 21 21 21 21 21 22 23 23 22 22 22 20 19 18 19 19 18 18 21 21 20 19 19 18 17 16 16 17 17 14 14 19 25 26 25 25 28 29 29 28 27 27 27 26 26 26 26 26 26 26 27 28 29 30 31 31 33 33 31 31 31 33 34 36 38
27 27 26 24 23 23 22 20 19 19 20 20 21 21 21 22 23 22 22 23 23 23 20 19 19 20 20 20 21 21 20 20 19 17 17 17 16 14 13 14 20 27 30 28 27 28 30 28 26 26 26 24 23 23 24 25 26 26 26 27 29 30 30 30 30 31 32 32 33 35 37 38 40 40
27 27 26 24 23 22 20 18 16 17 19 20 20 20 21 22 23 23 24 25 26 25 23 22 23 24 23 22 23 23 21 19 19 18 18 17 15 15 17 20 25 27 26 26 27 26 28 28 26 26 26 24 24 25 25 25 26 25 24 24 25 27 28 29 31 33 34 35 36 37 38 39 40 40
27 27 26 24 23 21 20 20 19 19 20 20 20 20 21 23 23 23 23 23 23 23 23 23 24 24 23 23 24 24 22 21 20 18 17 17 17 20 23 24 26 25 23 25 24 22 25 28 25 26 28 26 24 24 23 22 22 22 23 25 27 30 32 33 33 34 34 35 35 36 38 39 41 42
27 26 24 23 22 20 19 20 21 21 21 21 21 21 22 23 22 20 20 21 21 20 19 21 23 23 22 21 21 21 20 18 18 17 17 19 22 24 24 24 26 25 26 27 21 17 23 28 25 25 26 22 20 21 21 22 24 26 29 31 33 32 31 30 30 31 33 35 37 39 40 41 42 44
26 25 23 22 20 19 19 20 21 21 21 21 22 22 22 23 21 19 19 19 19 19 20 21 22 20 18 16 16 15 15 15 17 18 20 22 23 22 20 22 25 26 27 27 21 19 22 23 20 21 21 19 22 26 28 29 31 32 32 30 29 28 28 29 32 34 36 37 39 40 42 44 45 47
23 22 20 19 18 19 21 21 20 20 21 21 21 22 21 20 19 18 19 18 16 16 16 15 13 12 10 10 12 15 17 19 21 21 20 22 22 19 16 16 20 23 26 25 20 18 17 16 17 21 22 22 25 29 30 31 30 29 28 27 27 28 30 32 34 35 37 38 39 41 43 45 47 47
21 20 18 17 18 20 21 21 21 21 21 21 20 19 18 17 17 17 17 16 15 14 13 12 11 12 13 15 17 18 18 18 18 20 21 22 23 20 17 15 18 20 22 21 17 16 19 21 22 24 25 24 25 26 27 28 29 28 28 28 29 30 32 33 33 34 36 38 40 42 43 44 44 45
20 20 19 18 19 21 21 21 22 21 20 19 17 15 14 15 16 16 15 14 14 15 15 16 16 17 18 19 17 15 14 14 15 17 19 19 20 20 19 17 14 11 13 16 17 19 22 23 23 24 20 16 18 24 27 27 29 30 30 31 32 32 32 32 32 34 37 40 41 41 41 41 41 43
21 20 20 20 21 21 21 21 21 19 17 15 13 13 14 15 16 16 15 15 15 15 17 17 18 19 17 14 12 12 13 14 14 13 11 10 11 12 13 14 12 10 13 19 20 20 20 21 23 25 22 13 13 22 29 30 31 32 32 32 33 32 32 32 33 37 39 40 40 41 40 40 39 41
22 21 21 21 22 21 21 20 19 16 14 12 12 13 15 16 17 17 17 17 17 17 17 17 17 15 12 10 11 13 13 12 11 9 8 11 14 13 13 14 14 15 19 21 21 20 22 23 24 26 25 20 18 22 27 30 34 35 33 32 33 32 32 33 36 39 39 40 41 40 40 40 40 41
22 22 21 21 20 19 19 18 16 13 12 11 11 12 13 14 15 16 16 17 17 17 16 15 12 10 9 10 11 11 11 10 10 12 15 18 20 19 18 16 16 18 21 22 23 23 24 25 26 25 23 22 23 23 22 25 32 35 33 31 32 33 34 35 37 39 39 39 40 40 39 40 42 42
23 21 20 19 17 16 16 15 13 11 11 11 10 10 11 12 13 14 14 15 15 15 13 11 9 9 8 10 11 12 12 12 14 18 20 21 19 18 18 17 17 19 22 23 24 25 25 26 28 27 25 23 21 19 18 22 29 32 32 32 34 35 36 36 36 38 39 39 39 40 40 41 41 41
22 19 17 16 15 14 14 13 12 12 12 10 9 9 10 11 11 12 12 12 12 11 9 8 9 10 10 11 12 11 11 13 17 20 20 18 16 16 17 18 18 20 22 24 25 26 27 28 29 29 28 25 19 16 17 22 27 30 31 32 33 35 36 35 35 36 38 39 39 39 38 39 40 41
18 16 14 13 13 14 14 14 14 13 11 9 8 8 9 9 9 8 9 9 9 9 10 11 13 14 13 12 10 9 11 15 17 18 18 17 17 17 18 20 20 21 23 24 24 25 26 27 29 29 28 26 23 22 22 24 27 30 30 29 32 36 37 34 32 34 36 38 39 38 38 39 40 41
14 14 13 12 14 16 16 15 14 12 10 9 9 9 9 8 8 8 10 11 11 12 14 15 16 16 13 10 9 10 14 16 16 16 18 19 19 18 20 22 23 23 22 22 24 25 24 24 25 26 26 26 25 26 27 26 26 29 31 30 31 34 35 33 32 33 35 37 39 40 40 41 41 40
14 13 13 12 14 15 14 13 11 10 9 10 11 11 11 10 10 10 11 12 13 14 16 17 17 15 11 8 10 13 15 15 14 15 18 19 19 20 22 23 25 25 25 24 23 23 22 22 23 24 25 25 25 28 29 27 25 28 31 31 30 30 32 35 35 34 34 36 39 41 41 40 40 39
14 14 14 14 14 14 12 11 9 9 10 11 12 13 13 12 12 13 14 15 16 18 19 16 12 9 8 9 12 13 12 12 14 15 17 17 19 22 22 22 23 26 27 26 25 23 23 24 24 24 24 23 24 27 29 27 27 28 30 31 30 29 31 34 33 33 35 36 37 40 39 39 39 39
16 16 16 16 15 13 11 10 10 11 12 13 13 15 15 15 15 15 17 19 17 14 11 8 5 5 8 9 10 10 11 13 15 15 16 18 20 22 21 21 22 25 25 25 26 27 27 27 27 27 25 21 21 24 25 26 28 29 28 28 29 29 30 32 32 34 36 35 35 38 38 37 38 38
18 18 18 16 14 13 12 13 14 14 14 15 16 17 17 17 17 18 18 16 11 7 3 2 4 6 6 8 9 11 13 15 15 15 17 19 20 20 21 22 22 22 22 23 26 28 29 30 31 30 25 21 22 24 22 21 24 27 27 26 27 29 30 33 34 35 35 34 34 35 36 35 36 37
20 19 17 15 14 14 15 16 16 15 16 19 20 19 17 18 19 18 14 10 7 3 2 5 5 5 6 8 11 13 14 14 15 16 18 18 19 20 21 21 20 20 21 23 26 29 30 31 31 27 22 20 22 24 24 20 20 23 26 26 27 29 31 33 35 35 34 33 33 32 31 32 35 38
20 18 16 15 14 15 16 17 16 15 16 17 16 14 13 13 13 13 11 7 2 2 3 5 5 5 7 9 12 13 13 14 16 18 18 18 19 21 20 19 19 22 23 24 27 28 29 30 28 21 14 12 11 13 19 25 23 20 23 26 27 29 31 33 35 34 31 31 31 29 28 29 35 41
18 16 14 12 11 11 12 12 9 8 7 6 6 6 4 3 5 7 7 5 3 3 3 4 4 4 6 9 11 12 13 15 17 17 17 18 20 19 18 20 22 24 24 25 26 27 26 27 27 19 11 7 6 6 14 25 27 22 20 24 27 29 31 32 33 32 30 30 29 28 28 30 36 42
17 13 11 9 6 4 4 4 2 2 3 4 4 4 4 5 7 8 7 4 2 3 4 4 4 4 7 10 11 12 14 16 15 15 16 18 19 18 19 22 24 25 24 25 25 26 26 25 25 22 15 8 5 5 9 18 25 25 22 22 26 29 30 31 31 31 31 30 28 29 30 31 35 39
16 11 8 6 3 3 5 4 4 4 4 3 3 2 3 2 3 5 3 1 2 5 5 5 6 7 8 9 11 14 15 14 13 15 18 18 17 19 22 24 24 23 24 24 24 26 26 24 23 25 23 18 15 15 14 16 21 24 23 23 25 28 30 30 30 30 30 30 30 31 31 30 32 33
15 12 9 6 5 6 6 5 3 3 2 2 2 2 3 3 0 2 2 3 4 6 6 5 6 6 5 8 11 12 12 12 13 16 18 18 18 21 23 23 23 22 22 22 24 24 24 25 26 28 29 28 26 24 20 18 19 22 23 25 26 27 27 28 29 30 30 30 31 30 29 29 30 31
15 12 10 8 7 7 6 5 4 2 1 0 1 3 3 1 2 2 4 4 5 5 5 6 6 6 7 9 11 10 10 12 14 16 17 19 21 22 22 21 22 22 20 21 23 23 24 28 30 29 30 30 26 19 14 12 13 17 24 28 28 28 28 27 29 30 29 29 30 28 25 25 26 27
13 11 10 10 9 7 6 5 4 3 3 4 4 3 2 2 3 2 3 4 4 3 5 8 8 7 7 8 7 8 10 13 14 15 18 21 21 21 21 21 21 22 21 22 23 24 27 30 31 30 30 27 19 11 8 8 10 15 23 28 29 31 30 29 30 30 28 27 29 27 25 23 18 15
13 12 12 12 10 9 7 5 5 4 5 7 8 8 6 6 6 4 3 3 3 3 6 8 6 5 5 6 6 8 11 13 14 17 19 20 19 20 21 21 21 22 24 25 24 26 29 31 31 31 27 20 14 11 11 12 13 17 22 26 29 32 32 31 32 32 29 28 30 29 26 23 17 13
16 16 15 13 11 9 7 5 5 6 8 10 11 9 7 7 7 4 3 4 4 4 6 8 6 4 4 4 6 9 11 12 15 18 17 17 18 19 20 20 21 23 25 26 26 28 30 31 32 30 22 14 12 14 14 14 15 18 21 25 28 31 32 32 33 34 32 31 32 32 29 25 22 20
16 18 17 14 11 9 6 6 8 9 11 12 12 10 9 8 8 6 4 3 2 3 6 7 4 2 2 4 7 9 11 12 15 16 15 16 18 18 18 19 21 23 25 26 26 27 29 30 31 27 19 11 11 15 15 14 15 18 22 25 26 28 30 31 31 32 31 31 33 34 31 28 26 24
Wind_Direction
215 214 212 229 244 247 257 252 224 202 182 158 174 191 162 162 166 186 273 293 274 297 317 323 340 348 301 265 267 273 281 285 285 286 286 286 285 284 282 279 279 279 280 281 281 280 280 280 281 281 280 280 280 279 277 274 272 271 270 270 273 276 279 283 285 286 286 286 287 286 284 282 280 282
217 217 218 228 233 236 243 241 227 212 202 205 218 219 206 205 201 193 200 252 270 290 311 315 314 321 316 305 296 293 297 299 295 293 295 295 294 292 289 286 283 282 281 282 281 279 279 279 280 281 282 282 282 281 279 277 275 274 272 271 271 273 276 281 285 287 286 283 281 280 280 279 278 279
215 216 223 223 218 221 218 208 210 213 205 206 205 203 214 222 222 215 204 209 263 276 297 300 296 300 302 301 297 295 297 297 292 288 290 293 295 294 291 291 292 291 290 289 287 285 282 281 280 280 280 279 278 277 278 279 279 277 277 275 274 274 275 278 281 284 285 284 281 277 275 275 275 276
214 218 225 223 218 219 220 220 219 218 217 209 201 207 222 221 221 224 216 213 249 266 280 286 286 288 288 285 286 290 292 294 291 288 285 283 285 286 285 287 290 292 293 293 291 289 286 284 283 281 279 277 275 274 275 278 279 278 278 278 278 278 278 278 279 280 280 283 282 277 275 275 276 277
213 219 223 224 220 219 223 227 223 220 223 221 218 224 228 222 219 222 224 228 249 268 275 279 282 284 282 282 285 286 284 283 286 288 286 281 278 278 278 279 284 288 290 291 292 290 288 287 286 283 281 279 277 275 274 275 276 278 279 279 278 279 279 281 280 276 275 280 280 277 276 279 281 282
212 218 224 225 220 217 218 216 211 215 218 217 219 222 225 229 228 222 224 228 239 260 270 274 280 283 283 284 288 288 285 284 285 284 282 279 278 277 275 277 281 284 286 287 288 288 286 285 285 283 282 280 278 278 276 275 275 276 278 279 278 278 279 279 279 275 273 276 277 275 276 278 281 284
214 217 222 224 219 213 212 211 210 213 215 216 217 220 223 223 217 213 218 230 242 256 267 273 278 283 285 286 289 292 292 293 293 290 286 280 278 279 278 278 282 284 284 284 284 284 282 281 281 281 280 280 280 280 279 278 277 277 277 276 276 277 278 278 278 277 275 275 274 274 276 278 281 284
218 218 222 226 224 218 214 213 215 215 216 218 217 216 218 216 215 220 228 242 253 258 266 274 278 282 286 288 290 294 296 297 297 298 297 290 282 280 279 279 282 284 283 282 282 280 279 280 281 281 280 280 279 279 278 278 279 280 280 280 278 278 278 279 279 279 278 277 276 275 276 279 282 284
220 221 224 226 224 221 218 215 216 216 214 215 217 218 221 223 225 229 230 237 247 252 260 271 279 283 287 289 291 294 295 295 297 299 298 292 285 281 280 281 284 284 280 279 279 278 278 280 281 282 281 281 280 278 277 277 279 282 283 283 282 280 279 280 280 280 280 280 279 279 279 281 282 284
219 221 224 226 224 222 221 217 215 216 214 215 221 223 224 226 225 223 224 231 240 247 255 266 276 284 288 288 291 296 294 290 292 296 295 292 285 277 277 283 289 290 283 279 279 279 280 283 284 282 280 279 279 280 279 279 280 283 284 284 283 281 280 279 280 280 280 280 280 280 281 281 282 284
222 225 228 229 227 225 225 224 221 220 219 219 221 222 226 227 223 224 232 238 241 246 252 261 269 279 287 287 288 293 294 287 287 288 286 287 287 283 281 285 292 294 289 284 284 284 286 286 285 283 281 279 280 281 281 280 281 282 284 284 283 280 279 278 278 279 279 279 279 279 279 281 282 283
225 227 228 229 227 227 227 225 222 222 219 216 218 222 226 226 225 234 243 245 247 248 250 259 267 273 281 283 283 286 287 284 285 286 283 283 288 292 290 290 294 295 292 291 292 293 294 291 288 286 284 284 286 285 283 281 281 282 283 282 281 280 279 279 279 279 279 278 279 279 279 279 279 278
223 224 225 227 227 227 226 223 224 227 224 221 223 224 224 227 233 242 247 248 250 251 253 263 271 274 276 278 280 282 282 282 285 292 293 288 289 294 295 295 296 297 298 299 298 298 297 293 291 291 289 289 290 288 285 284 283 283 283 283 282 281 281 280 279 279 280 280 280 280 279 279 279 279
225 225 227 230 230 228 228 229 230 231 230 230 231 231 232 237 240 243 247 250 253 258 263 269 272 272 271 275 279 279 280 285 290 294 293 291 295 299 300 298 299 302 305 303 300 298 296 293 291 291 291 291 290 288 286 286 286 286 285 285 284 283 281 280 280 281 281 280 280 281 283 285 286 285
226 226 227 229 228 226 228 230 232 235 237 239 241 241 243 245 247 248 251 256 263 268 268 269 270 265 265 275 280 279 282 289 290 288 288 292 297 299 298 297 300 305 307 302 297 296 296 294 291 291 293 294 293 292 291 291 291 289 288 288 287 285 284 284 284 284 283 284 285 287 289 290 290 289
225 225 223 223 224 224 224 227 231 236 242 247 250 251 252 253 256 258 261 266 272 273 270 269 269 267 268 276 280 282 287 289 286 284 287 291 290 287 286 285 292 303 307 302 296 296 298 299 295 293 298 300 301 300 298 296 294 292 293 295 294 292 290 289 289 290 291 292 292 293 293 292 292 290
225 223 220 219 221 222 221 225 233 241 247 252 255 257 259 261 264 267 270 273 274 273 272 270 270 274 276 278 283 287 287 283 282 284 285 284 278 277 283 285 289 300 305 297 291 292 297 301 296 293 298 302 300 298 298 296 295 295 297 298 298 299 298 297 297 296 295 294 293 293 294 294 293 291
224 223 221 220 221 222 223 228 237 244 250 254 255 256 260 264 269 273 277 279 278 277 275 272 274 281 284 282 286 290 286 281 282 282 280 280 282 285 288 289 291 296 298 292 286 284 293 299 295 290 295 298 295 296 297 296 297 298 299 300 300 300 300 299 298 296 295 294 294 293 293 293 292 290
224 225 224 221 218 221 226 231 238 244 249 252 254 258 263 267 271 276 281 283 282 281 281 281 282 285 286 285 287 288 286 283 281 279 278 284 290 290 289 289 291 295 299 296 284 273 287 296 292 288 295 299 299 299 299 300 301 301 300 300 299 299 299 299 298 298 297 295 293 292 292 292 291 289
224 225 222 217 215 221 231 237 240 243 247 250 255 262 267 270 274 278 279 278 279 281 284 285 285 284 285 287 287 288 289 287 287 286 285 288 290 285 282 285 288 292 299 300 290 277 286 297 298 298 305 310 307 304 303 302 303 301 300 300 301 300 301 301 301 301 301 298 296 294 293 293 291 290
218 217 216 216 219 225 233 237 239 240 244 249 257 265 268 271 274 276 275 273 274 278 280 279 280 282 287 293 294 296 295 293 295 293 287 290 290 282 276 281 284 289 296 300 297 293 298 310 316 314 314 314 309 306 305 304 304 304 305 305 304 304 304 303 304 304 303 301 298 295 294 293 292 291
211 211 215 222 226 228 230 235 239 242 247 252 259 264 266 267 268 268 269 269 266 265 267 270 274 279 289 297 300 299 295 292 292 288 287 292 290 279 274 278 285 292 297 299 304 311 315 320 322 320 318 313 307 305 306 308 309 309 309 307 305 305 306 306 306 305 303 302 299 297 296 296 296 294
216 221 226 228 230 232 235 239 243 246 249 252 256 258 259 258 259 261 264 264 265 268 273 280 287 292 298 301 301 300 300 300 297 293 296 300 293 281 279 286 294 299 299 304 314 316 314 315 317 317 315 308 304 307 307 307 308 307 306 304 303 306 308 307 305 304 304 303 302 301 300 300 300 296
223 229 230 229 232 237 240 243 245 246 247 247 248 250 250 250 253 258 261 262 271 281 288 295 301 303 303 301 301 307 313 314 311 308 316 326 317 301 293 296 298 290 292 307 316 311 306 308 308 306 302 291 293 302 304 303 304 303 302 301 302 305 307 304 304 305 306 306 306 304 303 303 303 297
224 228 228 227 231 237 241 243 243 243 243 245 249 254 254 255 257 261 265 271 281 290 297 303 304 301 299 300 306 314 319 318 316 316 324 332 331 326 315 306 299 292 299 314 320 310 302 301 301 300 297 290 286 292 298 301 300 300 300 300 301 303 303 302 303 305 307 308 307 306 304 303 303 298
222 226 227 229 233 238 240 239 237 237 240 244 252 260 262 264 267 271 277 285 292 297 301 301 298 297 302 304 308 315 321 320 316 312 314 317 319 319 317 315 309 303 307 318 318 309 300 297 295 294 291 290 291 294 297 297 297 299 301 301 301 300 300 301 303 305 307 307 305 303 302 301 300 297
219 225 228 231 235 237 234 230 226 228 235 240 249 261 267 270 274 280 288 293 296 298 297 295 295 299 298 295 299 308 312 312 311 312 314 315 316 317 316 315 312 308 309 313 312 307 301 295 293 291 287 285 290 294 293 291 295 299 301 300 300 299 300 302 303 305 307 306 303 302 300 300 299 297
221 227 230 229 228 226 222 218 218 224 230 237 249 261 266 270 276 283 288 291 291 288 280 278 282 279 277 289 300 306 307 307 309 312 314 316 318 317 314 313 312 310 309 309 308 308 304 296 293 292 287 281 279 283 286 288 292 296 298 299 299 299 301 304 305 305 306 305 302 300 299 299 299 297
220 221 218 211 213 218 218 216 219 225 231 242 258 261 259 264 270 271 270 271 271 264 258 260 263 263 274 295 306 310 311 312 315 317 317 317 319 319 317 315 313 311 312 312 311 312 309 301 296 293 286 279 277 278 282 287 292 296 297 296 297 300 303 305 305 304 304 303 301 301 300 298 298 296
200 199 198 198 204 210 213 214 218 226 240 251 250 243 239 240 239 238 243 250 254 254 254 258 263 268 280 296 307 314 318 318 321 322 319 318 320 322 320 316 312 313 317 319 319 316 312 307 302 294 286 283 285 284 285 288 290 294 297 297 298 301 305 307 306 304 304 304 304 303 302 300 298 296
188 188 191 194 196 197 200 209 220 234 246 247 238 230 229 228 227 233 244 249 252 258 264 269 273 275 280 294 308 316 318 320 323 324 320 318 320 322 319 313 310 314 319 323 325 324 319 316 312 303 293 289 290 294 295 293 289 291 297 300 300 300 304 307 307 307 308 308 306 304 303 302 300 297
187 189 188 184 184 189 197 211 227 235 236 235 232 230 231 233 235 241 248 253 259 266 270 272 276 281 289 304 313 316 319 322 324 322 319 318 320 320 316 310 308 312 316 321 329 332 327 322 320 315 306 296 296 302 302 296 291 290 294 300 302 300 302 306 307 309 312 311 306 304 304 302 301 299
187 186 185 183 185 194 206 216 221 221 222 228 233 237 241 244 244 247 254 258 260 259 255 259 285 309 311 314 317 318 321 324 322 320 321 322 320 318 315 309 308 310 312 319 330 333 328 324 324 321 312 302 302 306 301 294 295 296 295 299 302 303 306 310 311 312 314 312 307 305 305 304 304 302
190 186 186 190 197 204 208 212 216 218 223 232 240 246 249 250 250 253 255 251 240 222 217 320 342 340 333 327 323 322 324 326 327 328 327 323 319 318 316 313 313 317 320 324 329 328 325 325 327 323 315 309 313 316 310 296 294 299 301 303 306 308 311 314 316 315 314 312 308 306 305 305 306 305
191 190 192 198 207 213 215 219 221 226 235 242 245 247 247 247 247 244 230 206 190 185 1 360 358 353 346 339 333 331 332 332 331 327 321 319 322 324 321 317 319 326 328 326 324 325 325 325 323 318 313 316 321 324 325 318 307 305 309 311 313 314 315 317 318 316 314 313 311 308 306 307 308 308
192 195 197 203 214 222 225 228 232 239 244 242 236 231 230 230 228 217 194 173 157 15 12 8 358 349 350 351 345 339 335 331 323 317 317 324 329 327 326 328 330 329 326 322 322 324 325 323 320 313 306 317 325 321 324 327 325 318 312 313 317 320 319 320 319 316 315 316 314 311 310 309 308 309
190 194 201 214 229 232 227 227 235 248 245 215 177 167 166 162 170 168 152 129 91 54 35 12 356 350 351 348 339 330 324 319 315 317 325 332 331 329 332 334 330 325 322 322 325 328 326 323 321 316 306 312 321 306 314 323 327 329 323 319 321 325 324 322 320 318 319 320 317 315 315 310 306 309
191 194 204 221 238 233 203 190 160 116 115 115 109 90 70 87 124 140 135 120 83 18 352 326 308 314 328 328 320 313 311 313 319 331 335 332 332 336 335 330 324 322 322 324 328 331 329 325 324 324 320 313 305 302 311 317 322 330 335 332 328 330 330 327 323 321 321 322 321 321 319 311 307 311
193 195 204 213 204 159 140 136 120 107 97 75 46 18 9 41 124 143 145 105 4 359 344 320 313 321 324 316 306 305 310 320 335 340 336 333 336 336 329 323 320 321 323 324 327 331 330 329 329 328 323 314 305 304 306 307 312 323 335 340 339 338 336 331 326 324 324 327 328 326 324 320 317 320
197 201 208 208 188 162 146 138 125 109 91 71 63 30 342 324 314 116 79 28 16 15 7 357 357 355 333 311 308 312 323 337 343 339 336 335 332 327 324 322 322 323 324 323 325 327 330 331 331 328 324 321 316 312 310 310 314 325 336 342 345 346 343 337 334 331 329 332 334 331 329 329 327 329
203 209 211 205 193 178 166 158 151 149 165 191 43 30 21 33 122 88 39 10 6 17 13 355 346 339 322 315 318 328 339 343 341 336 332 328 323 323 326 327 327 329 328 323 322 325 330 332 332 330 331 331 327 320 317 317 320 330 338 342 346 351 351 348 346 342 338 340 341 338 332 331 330 331
207 207 205 201 192 179 172 169 171 187 223 251 270 297 314 259 247 293 340 345 354 7 338 318 308 304 312 322 329 336 338 338 336 330 324 320 321 326 330 331 332 333 330 324 323 327 331 333 335 337 337 338 336 330 322 316 320 334 340 341 343 349 353 353 353 352 351 350 350 348 341 336 334 334
207 200 193 188 184 179 177 180 188 209 239 255 266 278 280 262 251 258 299 321 323 317 311 304 289 283 307 323 324 327 333 336 330 322 320 324 328 330 331 333 336 335 332 329 329 331 333 336 339 341 341 344 348 345 332 328 338 347 345 341 343 347 352 354 355 357 359 360 0 1 356 349 346 342
207 199 189 184 185 190 198 210 221 240 254 258 263 275 276 252 234 234 281 310 311 305 303 298 286 281 299 304 309 324 333 332 326 323 326 331 334 332 334 337 337 336 335 333 331 332 335 338 341 344 346 350 358 356 348 345 353 356 350 346 346 349 351 352 354 355 358 1 3 6 5 3 1 356
199 193 188 188 191 197 212 228 232 237 244 247 250 256 255 240 232 241 264 282 292 299 296 290 277 261 279 302 320 331 330 326 328 332 333 332 332 334 337 340 337 336 336 334 330 330 333 337 342 346 350 357 5 5 1 358 2 2 356 351 350 351 352 353 352 351 352 356 1 5 7 8 9 9
Height
840 840 841 841 842 843 843 843 843 843 843 844 844 845 845 846 848 849 850 848 846 846 846 846 846 845 845 846 846 846 845 845 844 844 843 842 842 842 841 841 841 840 840 839 839 840 840 840 840 840 840 840 839 839 839 838 838 838 838 838 837 837 836 836 836 836 836 835 835 834 834 833 833 833
839 839 840 840 840 841 842 842 842 842 842 842 843 844 844 844 845 846 848 848 846 845 846 846 846 846 845 846 845 845 844 844 843 842 841 841 840 840 839 839 838 838 837 836 836 837 837 837 838 837 837 837 837 836 836 836 835 835 835 835 835 834 834 834 833 833 833 832 832 832 831 831 831 830
837 838 838 838 838 839 840 840 841 841 841 841 842 842 843 843 843 843 845 846 845 844 844 844 845 845 845 845 844 843 843 842 841 840 840 839 838 838 837 836 836 835 834 833 833 833 833 834 834 834 834 834 834 833 833 833 832 832 832 831 831 831 831 831 830 830 830 829 829 829 829 828 828 828
835 836 836 836 836 837 838 839 840 840 840 840 840 841 842 842 843 843 843 844 843 843 843 843 843 843 843 843 842 841 841 840 840 838 838 837 837 836 835 834 833 832 831 831 830 830 830 830 830 831 831 831 831 830 830 830 830 829 829 829 828 828 828 828 827 827 827 826 826 826 826 825 825 825
833 834 834 834 835 835 836 837 838 839 839 840 840 840 841 841 842 842 842 842 842 842 842 841 841 841 840 840 839 839 839 838 838 836 836 835 835 834 833 832 831 830 830 829 828 827 827 827 827 827 827 827 827 827 827 827 827 826 826 826 825 825 824 824 824 824 823 823 823 822 822 822 822 822
830 831 832 833 833 834 835 835 836 837 837 838 838 839 839 839 840 840 841 841 840 840 839 839 838 838 838 837 836 836 836 835 834 834 833 833 832 832 831 830 829 828 828 827 826 826 825 825 824 824 823 823 823 823 823 823 823 823 822 822 822 821 821 820 820 820 820 820 819 819 819 819 819 819
827 829 830 831 832 832 833 833 834 834 835 836 836 837 837 837 838 839 839 839 838 838 837 837 836 835 835 834 833 833 832 831 831 830 830 830 830 829 829 828 827 826 826 825 824 824 823 823 822 821 821 820 820 819 819 819 819 819 819 819 818 818 818 817 816 816 816 815 815 815 815 815 815 815
825 826 827 828 829 830 831 831 831 832 833 833 834 834 834 835 835 836 836 837 837 836 835 834 833 833 832 831 830 830 829 828 828 827 827 827 826 826 826 825 825 824 823 823 822 822 821 821 820 819 818 818 817 817 816 816 815 815 815 814 814 814 814 813 813 812 812 811 811 811 812 812 812 812
823 824 825 826 827 828 828 828 829 829 830 831 832 832 832 832 833 833 834 834 834 834 833 831 831 831 830 829 828 828 827 826 825 824 824 824 823 823 823 823 822 821 821 820 820 819 819 818 817 816 815 814 814 814 813 813 812 812 811 811 810 810 809 809 809 808 808 808 807 807 807 808 807 807
821 822 823 824 825 826 826 827 827 828 828 829 830 830 830 830 831 831 831 831 831 831 830 829 828 828 828 827 826 825 825 825 823 822 821 821 821 821 820 820 819 819 818 817 817 817 816 815 814 813 812 811 811 810 809 809 809 808 808 807 806 806 805 805 804 804 804 804 804 803 803 803 803 803
818 820 821 822 823 824 824 825 826 827 827 827 828 828 828 829 829 828 828 828 828 828 827 827 827 826 826 825 823 822 823 822 821 820 818 817 817 818 818 817 817 816 815 815 814 814 813 812 811 809 809 808 807 807 806 806 805 805 804 803 802 802 801 801 801 800 800 800 800 799 799 799 798 798
816 817 818 819 820 822 823 824 825 825 825 825 825 826 826 826 826 826 826 826 826 825 825 825 824 824 823 822 821 821 821 820 819 818 817 815 815 815 815 814 814 813 812 812 811 811 810 808 807 806 805 805 804 803 803 802 802 801 800 799 799 798 798 797 797 797 796 796 795 795 794 794 794 793
814 815 816 817 818 820 821 822 822 823 823 822 823 824 824 824 824 824 824 824 823 823 823 823 822 822 821 820 819 819 819 818 817 816 816 814 813 813 812 811 811 811 810 808 807 807 806 805 803 803 802 801 801 800 799 799 798 797 797 796 795 795 794 794 793 793 792 792 791 791 790 790 789 789
812 813 814 814 816 818 819 820 820 821 821 821 821 822 822 823 822 822 822 822 822 822 822 821 820 820 819 818 818 817 817 816 816 815 814 812 811 811 810 808 808 808 807 805 804 803 803 801 799 799 798 798 797 796 795 795 794 793 793 792 791 791 790 790 789 788 788 787 787 787 786 785 785 784
810 810 811 812 814 816 817 817 818 819 820 820 820 820 820 821 821 821 821 821 821 821 820 819 819 818 816 816 816 816 815 815 814 813 812 811 810 809 808 806 805 804 804 802 800 799 798 798 796 795 795 794 793 793 792 791 791 790 789 789 787 787 786 785 785 784 783 783 782 782 781 780 779 778
808 808 809 810 812 813 815 816 817 818 819 819 818 819 819 819 819 819 819 820 819 819 818 817 816 815 814 814 814 814 813 813 812 811 810 809 808 807 806 805 803 802 801 799 796 794 794 794 793 792 792 791 790 790 789 788 787 787 786 785 784 783 783 782 781 780 779 779 778 777 775 774 773 772
805 805 807 808 809 811 813 814 815 815 816 817 817 817 817 817 817 817 817 817 817 817 816 815 814 813 813 811 811 811 811 810 810 809 807 807 806 805 804 802 800 799 799 797 794 792 791 791 791 789 789 789 788 787 786 785 784 784 783 782 781 781 780 779 778 777 775 774 773 771 770 768 767 766
802 803 804 805 807 809 810 812 812 813 814 814 814 815 814 814 814 814 814 814 814 814 814 813 811 810 810 809 808 809 809 808 808 807 805 804 804 803 801 800 798 797 797 795 793 791 789 789 788 786 785 785 785 784 783 782 782 781 780 780 778 777 776 775 773 772 770 769 767 766 765 764 762 761
799 800 802 803 805 807 808 809 810 810 811 812 812 812 812 811 811 811 810 811 811 812 811 810 809 808 808 807 806 807 807 806 806 805 804 803 801 800 798 797 796 794 793 793 792 789 787 787 786 783 783 783 782 781 781 779 779 778 776 775 774 773 771 770 768 767 765 764 762 761 760 758 757 756
797 798 800 801 803 805 806 807 807 808 809 809 809 809 809 809 809 808 808 809 810 810 809 808 807 806 806 805 805 805 805 804 804 803 802 800 799 797 796 794 793 791 790 791 790 787 785 785 784 782 782 781 779 778 777 776 775 773 772 771 769 768 767 765 763 762 760 758 757 755 754 752 751 749
795 796 798 800 801 802 803 804 805 806 807 807 807 807 807 807 807 806 807 808 808 808 807 805 805 804 804 803 803 803 803 802 801 800 799 798 796 795 794 792 790 790 788 788 788 786 784 784 783 780 779 778 776 774 773 772 770 769 767 766 765 764 762 760 759 757 755 753 751 749 748 746 744 742
793 794 796 798 799 800 801 803 804 805 805 805 805 806 805 805 805 805 806 806 806 806 804 804 803 802 802 802 801 801 800 800 799 798 797 795 794 793 792 791 789 788 787 787 787 785 783 782 781 778 775 773 773 772 770 768 766 765 763 762 761 759 758 756 754 752 750 748 746 744 742 740 738 735
791 792 794 795 797 798 799 801 802 802 803 803 804 804 804 804 804 804 804 804 804 803 802 802 801 800 800 800 799 799 798 797 797 796 795 794 792 791 791 790 789 788 787 786 786 784 782 780 779 778 774 770 768 767 766 764 762 761 760 758 757 755 753 752 750 747 745 742 740 738 736 734 732 729
789 791 792 794 795 796 797 799 799 800 801 801 802 802 802 802 802 802 803 803 802 801 800 800 799 799 798 798 797 797 796 796 795 794 793 792 791 791 790 790 789 788 786 785 785 783 781 779 777 777 775 771 766 763 762 760 758 757 756 755 753 751 749 747 745 742 739 736 734 732 729 727 726 723
787 788 790 791 793 794 795 796 797 798 799 799 800 800 800 801 801 801 801 801 800 799 799 798 798 797 796 796 796 795 795 794 793 792 791 791 790 790 789 788 787 785 783 783 783 782 779 778 775 773 772 769 765 762 760 757 754 753 753 751 749 746 744 743 740 737 734 731 728 726 723 721 719 717
785 786 787 788 790 791 792 794 795 796 797 797 798 799 799 799 799 799 799 799 798 798 797 797 796 796 795 795 795 794 793 792 791 790 789 789 788 787 786 785 784 782 781 780 781 779 777 775 773 771 769 766 763 761 759 755 751 749 749 747 745 743 740 738 735 732 729 726 723 721 718 716 713 711
782 783 785 786 788 789 790 791 793 794 795 796 796 797 798 798 798 797 797 797 797 796 796 796 795 794 794 794 793 792 791 790 790 789 788 787 786 785 784 783 782 781 780 778 778 777 775 773 770 769 767 764 762 759 757 753 749 746 744 743 741 739 736 735 731 727 724 721 718 715 712 710 707 704
780 782 783 785 786 787 788 790 791 792 793 794 795 795 796 796 796 796 796 796 796 795 795 794 793 793 792 792 791 791 790 789 788 788 786 785 784 783 781 780 780 779 778 776 775 773 772 770 767 765 764 762 760 757 754 750 746 743 741 738 736 734 732 731 728 724 720 717 714 711 707 704 700 697
779 780 782 783 784 785 786 788 789 790 791 792 793 794 794 794 794 794 794 794 794 794 793 792 792 791 791 791 790 789 789 788 787 786 785 783 782 781 779 778 777 776 775 773 772 770 769 767 764 762 760 759 757 754 751 747 744 741 738 735 732 729 728 727 724 721 717 714 709 706 703 699 695 691
778 779 780 781 782 784 785 786 788 789 790 791 791 792 792 792 793 793 792 792 792 791 791 790 790 790 790 790 789 788 788 787 785 784 783 781 780 779 777 775 774 773 772 771 769 767 766 764 762 760 758 756 754 751 748 746 742 738 736 733 729 724 722 721 720 717 714 709 704 700 696 692 689 685
777 778 779 780 782 783 784 786 787 788 789 789 789 790 790 790 791 791 790 790 790 790 790 790 790 790 790 789 788 787 786 785 784 783 781 780 778 777 776 774 771 769 768 768 767 765 763 761 760 758 756 754 751 749 746 744 740 735 732 730 728 723 718 716 714 712 709 705 699 693 689 685 681 678
776 777 778 779 781 782 783 785 785 786 787 787 787 788 788 788 789 789 788 788 788 789 789 789 789 788 788 787 786 785 784 783 782 781 780 779 777 776 774 772 769 766 764 763 763 763 761 759 758 756 754 752 749 747 744 740 737 733 730 728 726 722 718 714 710 706 704 700 694 687 683 679 674 670
775 776 777 778 780 781 782 783 784 784 785 785 785 785 786 786 787 787 787 787 787 788 788 788 787 787 786 785 785 784 783 781 781 780 779 777 776 774 772 770 768 765 763 761 760 759 758 756 755 753 751 750 748 745 742 738 734 731 728 726 723 719 715 712 707 703 699 695 689 681 677 673 668 663
774 775 776 778 779 780 781 782 782 783 783 782 782 783 783 784 785 785 785 786 787 787 787 786 786 785 784 784 783 782 781 780 779 779 777 776 775 773 771 769 766 765 763 761 759 758 755 753 751 749 748 746 744 742 741 737 732 728 726 724 721 716 712 708 704 700 695 691 685 677 671 666 663 658
773 774 776 777 778 779 780 780 780 781 780 780 780 781 781 782 782 783 784 785 785 786 785 784 784 784 783 783 782 781 780 779 778 777 776 775 774 771 769 767 765 764 763 761 758 756 754 751 749 746 744 743 740 737 736 734 731 727 724 722 719 715 710 705 701 697 692 688 683 676 667 661 657 653
772 773 775 776 777 778 778 778 778 779 778 778 779 779 780 781 781 782 783 783 784 784 783 783 783 783 782 781 780 780 779 778 777 776 775 773 772 770 768 767 765 763 762 759 757 755 752 750 747 745 743 741 739 736 732 731 730 728 724 721 718 714 709 704 699 694 689 684 679 674 667 659 651 647
771 772 774 775 775 776 776 777 777 777 778 778 778 779 780 780 780 781 781 782 782 783 782 783 782 781 780 779 779 779 778 777 776 775 773 772 771 769 767 765 764 762 760 758 756 754 751 749 746 745 743 741 739 736 732 728 727 727 724 721 716 712 708 703 696 691 686 682 677 672 667 660 650 643
770 771 772 773 774 774 775 775 776 776 777 778 778 779 779 779 780 780 781 781 781 781 782 782 781 780 779 778 778 778 777 776 775 774 772 771 770 768 766 764 762 760 758 756 755 753 750 748 746 744 742 740 737 735 731 726 724 723 723 721 716 711 707 702 695 688 683 678 674 669 665 659 650 642
768 769 771 772 772 773 774 775 776 776 777 778 778 779 779 779 779 779 779 780 780 780 780 780 779 778 777 777 778 777 776 775 774 773 771 770 769 767 766 763 761 759 757 755 753 751 749 747 745 742 740 738 735 732 730 727 724 721 720 720 716 711 706 701 695 689 682 677 671 666 661 655 648 641
767 768 769 770 771 772 773 774 775 776 777 777 777 778 778 778 778 778 778 778 779 779 779 779 777 776 776 777 777 776 775 774 773 772 771 769 768 766 765 762 760 758 756 754 751 749 747 745 743 741 738 736 733 730 728 726 723 720 718 717 714 711 707 701 695 689 683 677 671 664 657 651 644 638
766 767 768 769 770 771 772 773 774 774 775 776 776 777 777 777 777 777 777 778 777 777 777 777 776 776 776 776 776 775 774 773 772 771 770 768 767 765 763 761 759 757 755 753 750 748 746 744 741 739 736 733 730 728 727 724 721 718 716 714 711 708 705 701 696 691 684 679 673 666 659 652 645 638
764 765 766 768 769 770 771 772 772 773 774 775 775 776 776 776 776 776 776 776 776 776 776 776 776 775 775 775 774 774 773 772 771 770 769 767 766 764 762 760 758 756 754 752 750 747 745 742 739 736 734 731 729 728 726 724 721 718 715 712 708 705 702 699 695 691 685 680 675 669 662 655 648 642
762 763 765 766 767 768 769 770 771 772 773 774 774 774 775 775 775 775 775 775 775 775 775 774 774 774 774 774 773 772 772 771 770 769 768 766 765 763 761 759 758 756 753 751 749 746 743 740 737 735 732 730 729 728 725 723 721 719 716 712 707 703 700 696 693 689 685 681 677 672 667 661 655 649
760 762 763 764 766 767 768 769 770 771 772 772 773 773 773 773 773 773 773 773 773 773 773 773 773 773 772 772 772 771 771 770 769 768 766 765 764 762 760 758 757 755 753 750 747 745 741 738 736 734 732 731 730 728 725 723 721 719 716 713 708 703 699 694 690 686 682 679 676 672 668 664 660 656
759 760 761 763 764 765 767 768 769 770 771 771 771 772 772 772 772 772 772 772 772 772 772 772 772 772 771 771 771 770 770 769 768 767 765 764 763 761 759 758 756 754 751 749 747 744 741 738 736 734 733 732 730 728 726 724 723 720 717 714 710 705 701 696 691 686 682 679 676 672 667 663 660 656